[[{"header":{"parameterUnit":"m.s-1","parameterCategory":2,"la1":30.2991,"la2":30.254,"lo1":-89.0895,"lo2":-89.0444,"dy":0.0017,"dx":0.0017,"nx":28,"ny":28,"refTime":"2025-08-24T21:00:00:Z","depth":"0","parameterNumber":2,"parameterNumberName":"U-component_of_CURRENTS"},"data":[0,0,0,0,0,0,0,0,0,0,0,0,0,0,0,0,0,0,0,0,0,0,0,0,0,0,0,0,0,0,0,0,0,0,0,0,0,0,0,0,0,0,0,0,0,0,0,0,0,0,0,0,0,0,0,0,0,0,-0.2032,-0.2034,0,-0.2142,-0.2142,-0.2143,-0.2084,-0.2082,-0.208,-0.2078,-0.2028,-0.2029,-0.203,0,0,0,0,0,0,0,0,0,0,0,0,0,-0.1779,-0.1783,-0.2032,-0.2034,-0.2036,-0.2142,-0.2142,-0.2143,-0.2084,-0.2082,-0.2079,-0.2077,-0.2028,-0.2029,-0.203,0,0,0,0,0,0,0,0,0,0,0,0,0,-0.188,-0.1784,-0.2031,-0.2027,-0.2028,-0.2142,-0.2142,-0.2143,-0.2085,-0.2082,-0.2078,-0.2076,-0.2028,-0.2029,-0.203,-0.2099,0,0,-0.2033,-0.2033,0,0,0,0,0,0,0,0,-0.1874,-0.1888,-0.2025,-0.2027,-0.2029,-0.2104,-0.2036,-0.2124,-0.2086,-0.2053,-0.2078,-0.2074,-0.2048,-0.2047,-0.2063,-0.2096,-0.2094,-0.2033,-0.2033,-0.2034,-0.2034,0,0,0,0,0,0,0,-0.1867,-0.1883,-0.2066,-0.2028,-0.2031,-0.2023,-0.2032,-0.2052,-0.2056,-0.2056,-0.2054,-0.2083,-0.2046,-0.2062,-0.2061,-0.2094,-0.2033,-0.2034,-0.2034,-0.2035,-0.2085,-0.2085,0,0,0,0,0,0,-0.1877,-0.1877,-0.2062,-0.207,-0.1953,-0.2031,-0.2041,-0.2076,-0.2059,-0.2058,-0.2085,-0.208,-0.2062,-0.206,-0.2059,-0.2074,-0.2034,-0.2035,-0.2035,-0.2084,-0.2085,-0.2086,0,0,0,0,0,0,-0.1871,-0.1893,-0.2058,-0.1982,-0.2004,-0.2039,-0.2078,-0.208,-0.2098,-0.2086,-0.2078,-0.2103,-0.206,-0.2058,-0.2072,-0.2073,-0.2035,-0.2036,-0.2083,-0.2084,-0.2085,-0.2144,0,0,0,0,0,0,-0.1864,-0.189,-0.1908,-0.1984,-0.2009,-0.2136,-0.2082,-0.2084,-0.2125,-0.2118,-0.2099,-0.2091,-0.2057,-0.2071,-0.2073,-0.2074,-0.2037,-0.2082,-0.2084,-0.2085,-0.2141,-0.2147,-0.2152,0,0,0,0,0,-0.1854,-0.1918,-0.1908,-0.1931,-0.2036,-0.214,-0.2152,-0.2158,-0.2129,-0.2156,-0.2128,-0.2091,-0.2079,-0.2074,-0.2076,-0.2076,-0.2081,-0.2083,-0.2085,-0.2139,-0.2146,-0.2152,0,0,0,0,0,0,-0.1825,-0.1922,-0.1911,-0.2,-0.2062,-0.2133,-0.2175,-0.2176,-0.2182,-0.2166,-0.2124,-0.2117,-0.2117,-0.2105,-0.21,-0.2093,-0.2067,-0.2069,-0.2107,-0.2114,-0.2119,-0.2096,-0.2038,0,0,0,0,0,-0.1828,-0.1892,-0.1974,-0.2041,-0.2081,-0.2124,-0.2163,-0.2174,-0.2202,-0.2201,-0.2183,-0.2155,-0.2132,-0.213,-0.2113,-0.2142,-0.2091,-0.2135,-0.2141,-0.2146,-0.2128,-0.2077,-0.2076,-0.2091,-0.2091,-0.2091,0,0,-0.1832,-0.1899,-0.193,-0.2038,-0.2085,-0.2146,-0.2138,-0.2221,-0.2234,-0.2197,-0.2203,-0.2182,-0.2143,-0.2145,-0.2144,-0.2135,-0.2115,-0.2148,-0.2152,-0.2131,-0.2079,-0.2077,-0.2076,-0.2092,-0.2092,-0.2092,0,0,-0.1898,-0.1939,-0.2013,-0.2068,-0.2161,-0.2184,-0.2212,-0.2283,-0.2274,-0.2304,-0.2251,-0.2238,-0.2233,-0.2194,-0.2172,-0.221,-0.2141,-0.2203,-0.2221,-0.2173,-0.2171,-0.2168,-0.2097,-0.2088,-0.2211,-0.2211,-0.2212,0,-0.1892,-0.1988,-0.2049,-0.2132,-0.2165,-0.2201,-0.2259,-0.2278,-0.2328,-0.2311,-0.2305,-0.2258,-0.2244,-0.2206,-0.2211,-0.2219,-0.2171,-0.22,-0.2178,-0.2175,-0.2171,-0.2099,-0.2088,-0.2215,-0.2214,-0.2214,-0.2214,0,-0.2005,-0.2066,-0.2126,-0.2209,-0.2255,-0.2327,-0.2356,-0.2372,-0.2359,-0.2354,-0.2326,-0.2309,-0.2267,-0.2269,-0.2254,-0.2219,-0.2185,-0.2187,-0.2159,-0.2173,-0.2096,-0.2084,-0.2219,-0.2218,-0.2217,-0.2216,0,0,-0.2022,-0.2168,-0.2181,-0.2206,-0.2293,-0.2341,-0.2359,-0.2376,-0.2358,-0.2372,-0.2336,-0.2316,-0.2293,-0.2267,-0.2247,-0.2221,-0.217,-0.2201,-0.2197,-0.2125,-0.2039,-0.1964,-0.1942,-0.2168,-0.2166,-0.2165,-0.1994,0,-0.2074,-0.2209,-0.2261,-0.2332,-0.2388,-0.2397,-0.2404,-0.2409,-0.2391,-0.2368,-0.2328,-0.2295,-0.2294,-0.2274,-0.2248,-0.2182,-0.2139,-0.2214,-0.204,-0.2033,-0.1962,-0.1926,-0.1817,-0.1651,-0.1981,-0.1979,-0.1977,0,-0.2146,-0.2223,-0.231,-0.2362,-0.2385,-0.2412,-0.2391,-0.2406,-0.2373,-0.2356,-0.2315,-0.2282,-0.2228,-0.224,-0.2115,-0.216,-0.2099,-0.2056,-0.2048,-0.1943,-0.1935,-0.1692,-0.1615,-0.1588,-0.1957,-0.1959,-0.196,0,-0.2106,-0.2235,-0.2285,-0.2314,-0.2393,-0.2392,-0.2407,-0.2392,-0.2356,-0.2338,-0.2293,-0.2246,-0.2181,-0.2123,-0.2028,-0.2067,-0.1881,-0.1923,-0.1789,-0.1782,-0.1633,-0.1616,-0.15,-0.1827,-0.1828,-0.1828,-0.1829,0,-0.2126,-0.2161,-0.2271,-0.23,-0.2307,-0.2376,-0.234,-0.2353,-0.2326,-0.2253,-0.2275,-0.219,-0.2147,-0.2037,-0.1993,-0.1822,-0.184,-0.1759,-0.1726,-0.1651,-0.1639,-0.1565,-0.1599,-0.1822,-0.1823,-0.1824,-0.1826,0,-0.2058,-0.2149,-0.2197,-0.2283,-0.2292,-0.229,-0.2276,-0.2241,-0.2253,-0.2155,-0.2137,-0.2095,-0.1967,-0.19,-0.1776,-0.1729,-0.1569,-0.1559,-0.1463,-0.1423,-0.1303,-0.1346,-0.119,-0.1163,-0.1385,-0.1382,-0.138,0,-0.2022,-0.2054,-0.2141,-0.213,-0.2159,-0.2159,-0.2133,-0.2178,-0.2127,-0.2068,-0.2001,-0.1894,-0.1775,-0.1581,-0.1489,-0.1359,-0.1403,-0.1201,-0.1271,-0.1247,-0.1271,-0.133,-0.1326,-0.109,-0.1086,-0.1082,-0.1079,0,-0.1905,-0.1946,-0.1976,-0.1977,-0.1968,-0.1946,-0.1927,-0.1891,-0.1907,-0.1854,-0.1747,-0.1669,-0.1492,-0.1312,-0.1177,-0.1111,-0.1167,-0.1119,-0.1111,-0.103,-0.1066,-0.104,-0.1254,-0.1045,-0.1048,-0.1051,-0.1052,-0.1054,-0.1748,-0.1742,-0.1771,-0.1758,-0.1749,-0.1705,-0.1635,-0.1636,-0.157,-0.1463,-0.1492,-0.1318,-0.1189,-0.0989,-0.0924,-0.0768,-0.0895,-0.0747,-0.0795,-0.0853,-0.0842,-0.0973,-0.0734,-0.0736,-0.0737,-0.0738,-0.0739,0,-0.1511,-0.1537,-0.1525,-0.1501,-0.1428,-0.1498,-0.1445,-0.1362,-0.1262,-0.1219,-0.1124,-0.0891,-0.0749,-0.0653,-0.0505,-0.0456,-0.0493,-0.0459,-0.052,-0.053,-0.0622,-0.0625,-0.0331,-0.0331,-0.0331,-0.0331,-0.0331,-0.0331,-0.1376,-0.1308,-0.1343,-0.1177,-0.1157,-0.1017,-0.0973,-0.0915,-0.0855,-0.0676,-0.0519,-0.0463,-0.038,-0.0348,-0.0285,-0.0282,-0.033,-0.0297,-0.0381,-0.0454,-0.0486,-0.0517,-0.0526,-0.0217,-0.0217,-0.0243,-0.0243,-0.0243]},{"header":{"parameterUnit":"m.s-1","parameterCategory":2,"la1":30.2991,"la2":30.254,"lo1":-89.0895,"lo2":-89.0444,"dy":0.0017,"dx":0.0017,"nx":28,"ny":28,"refTime":"2025-08-24T21:00:00:Z","depth":"0","parameterNumber":3,"parameterNumberName":"V-component_of_CURRENTS"},"data":[0,0,0,0,0,0,0,0,0,0,0,0,0,0,0,0,0,0,0,0,0,0,0,0,0,0,0,0,0,0,0,0,0,0,0,0,0,0,0,0,0,0,0,0,0,0,0,0,0,0,0,0,0,0,0,0,0,0,-0.0152,-0.0151,0,-0.0047,-0.0045,-0.0044,-0.0011,-0.0011,-0.0012,-0.0012,0.0116,0.0119,0.0123,0,0,0,0,0,0,0,0,0,0,0,0,0,-0.0206,-0.0206,-0.0152,-0.0151,-0.015,-0.0047,-0.0045,-0.0044,-0.001,-0.0011,-0.0012,-0.0012,0.0114,0.0119,0.0124,0,0,0,0,0,0,0,0,0,0,0,0,0,-0.0149,-0.0206,-0.0152,-0.0121,-0.0117,-0.0047,-0.0045,-0.0043,-0.001,-0.0011,-0.0012,-0.0013,0.0113,0.0118,0.0124,0.0177,0,0,0.0142,0.0145,0,0,0,0,0,0,0,0,-0.0153,-0.0147,-0.0127,-0.0123,-0.0119,-0.0043,-0.0017,0.0031,-0.001,-0.005,-0.0012,-0.0013,0.0065,0.0075,0.0097,0.0182,0.0188,0.0143,0.0146,0.0149,0.015,0,0,0,0,0,0,0,-0.0157,-0.0151,-0.011,-0.0126,-0.012,-0.0071,-0.0065,-0.0007,0.0011,-0.0047,-0.0044,-0.0033,0.0067,0.0091,0.01,0.019,0.0142,0.0148,0.0151,0.0154,0.0315,0.0316,0,0,0,0,0,0,-0.0176,-0.0155,-0.0113,-0.0107,-0.0139,-0.007,-0.0063,-0.0066,0.001,0.0021,-0.0033,-0.0032,0.0081,0.0093,0.0105,0.0168,0.0149,0.0154,0.0157,0.0314,0.0315,0.0316,0,0,0,0,0,0,-0.0178,-0.0174,-0.0117,-0.0128,-0.0118,-0.0069,-0.0072,-0.0064,-0.004,0.0021,0.0032,-0.0018,0.0081,0.0096,0.0161,0.0174,0.0157,0.0162,0.0314,0.0315,0.0316,0.0298,0,0,0,0,0,0,-0.018,-0.0176,-0.0181,-0.013,-0.0118,-0.0067,-0.0071,-0.0061,-0.0032,-0.003,0.0038,0.0048,0.0082,0.0152,0.0167,0.0181,0.0167,0.0313,0.0314,0.0315,0.0298,0.0298,0.0299,0,0,0,0,0,-0.0183,-0.0188,-0.0182,-0.0177,-0.0129,-0.0066,-0.0054,-0.0022,-0.0031,-0.0007,0.0031,0.0046,0.0171,0.0158,0.0175,0.0191,0.0312,0.0314,0.0315,0.0297,0.0298,0.0299,0,0,0,0,0,0,-0.0209,-0.0184,-0.0176,-0.0174,-0.012,-0.0061,-0.0043,-0.0021,0.0028,0.0024,0.0069,0.0084,0.0141,0.0173,0.0157,0.0241,0.024,0.0245,0.022,0.0222,0.0222,0.0208,0.0171,0,0,0,0,0,-0.022,-0.0224,-0.0172,-0.0167,-0.0145,-0.0095,-0.0068,-0.0041,0.0007,0.0027,0.0075,0.012,0.0164,0.0196,0.0244,0.0302,0.0296,0.032,0.032,0.0321,0.0321,0.0327,0.0327,0.0322,0.0322,0.0322,0,0,-0.023,-0.0215,-0.0217,-0.0173,-0.0137,-0.009,-0.008,-0.0037,0.0002,0.0035,0.0096,0.0129,0.0179,0.0236,0.0264,0.0265,0.0314,0.0323,0.0323,0.0323,0.0328,0.0329,0.0329,0.0323,0.0323,0.0323,0,0,-0.0238,-0.0236,-0.0233,-0.0185,-0.0129,-0.009,-0.0079,-0.0011,0.0014,0.0084,0.0101,0.0143,0.0229,0.026,0.0286,0.0324,0.0315,0.0333,0.0334,0.034,0.034,0.034,0.0304,0.0301,0.0337,0.0337,0.0337,0,-0.0248,-0.0241,-0.0215,-0.0179,-0.0147,-0.0093,-0.0059,-0.001,0.0072,0.0084,0.0102,0.0191,0.024,0.0284,0.0299,0.0326,0.0308,0.0324,0.0338,0.0338,0.0339,0.0302,0.0299,0.0336,0.0336,0.0337,0.0337,0,-0.0241,-0.0223,-0.0211,-0.016,-0.0115,-0.0076,-0.0007,0.0033,0.0064,0.0104,0.0154,0.0217,0.0259,0.0285,0.0312,0.0336,0.0313,0.0332,0.0329,0.0338,0.0299,0.0296,0.0335,0.0336,0.0336,0.0336,0,0,-0.029,-0.0226,-0.0219,-0.0199,-0.0107,-0.0076,-0.0014,0.0042,0.0053,0.0136,0.0148,0.0239,0.0247,0.0276,0.0306,0.0328,0.0318,0.0331,0.0332,0.0283,0.0289,0.0282,0.0278,0.0332,0.0332,0.0332,0.025,0,-0.0291,-0.026,-0.021,-0.0159,-0.0137,-0.0066,-0.002,0.0038,0.0083,0.0116,0.0169,0.0202,0.0251,0.0256,0.0289,0.0311,0.0313,0.0336,0.03,0.0299,0.0282,0.0277,0.0333,0.0267,0.0247,0.0247,0.0246,0,-0.0297,-0.0279,-0.0255,-0.0193,-0.0177,-0.0134,-0.009,-0.0035,0.0028,0.0058,0.01,0.0138,0.0185,0.0221,0.0258,0.0264,0.0273,0.0292,0.029,0.029,0.0288,0.0264,0.0262,0.0364,0.0242,0.0242,0.0243,0,-0.0378,-0.0306,-0.0309,-0.0278,-0.0197,-0.0183,-0.0139,-0.0072,-0.0052,0.0006,0.001,0.0078,0.009,0.0137,0.0187,0.0214,0.0205,0.0245,0.0238,0.0235,0.0282,0.0285,0.0371,0.0255,0.0255,0.0256,0.0256,0,-0.0414,-0.0401,-0.0354,-0.035,-0.0347,-0.026,-0.0254,-0.0199,-0.0146,-0.0143,-0.0043,-0.0045,0.0071,0.0088,0.0144,0.0169,0.0164,0.0229,0.0222,0.0275,0.0278,0.0369,0.0401,0.0253,0.0253,0.0254,0.0254,0,-0.0493,-0.0461,-0.0457,-0.0404,-0.0389,-0.0392,-0.0329,-0.0326,-0.0261,-0.026,-0.025,-0.0158,-0.0127,-0.0038,0.0021,0.0093,0.018,0.0133,0.0167,0.0168,0.0291,0.0318,0.0323,0.0385,0.0125,0.0125,0.0124,0,-0.053,-0.0545,-0.0525,-0.0533,-0.051,-0.0495,-0.0486,-0.0405,-0.0402,-0.0342,-0.0362,-0.0314,-0.0291,-0.0203,-0.0053,0.0029,0.0115,0.0123,0.0213,0.0299,0.0325,0.0326,0.0381,0.025,0.025,0.0251,0.0251,0,-0.0594,-0.06,-0.0604,-0.0629,-0.0633,-0.0632,-0.0614,-0.063,-0.0552,-0.0546,-0.0545,-0.0519,-0.039,-0.0231,-0.0084,-0.0017,0.0212,0.0135,0.0236,0.0438,0.0433,0.049,0.0267,0.0256,0.0255,0.0255,0.0255,0.0254,-0.064,-0.0671,-0.0686,-0.0704,-0.0721,-0.075,-0.0754,-0.0758,-0.0766,-0.0698,-0.0672,-0.0499,-0.0281,-0.0045,-0.0002,0.0247,0.0212,0.0361,0.038,0.0368,0.0464,0.0225,0.0208,0.0207,0.0206,0.0206,0.0205,0,-0.0671,-0.0705,-0.0744,-0.0769,-0.0803,-0.0788,-0.0815,-0.0817,-0.085,-0.0692,-0.0644,-0.0186,-0.003,0.0202,0.0459,0.0539,0.0568,0.0578,0.0639,0.0682,0.0493,0.0541,0.0582,0.0582,0.0582,0.0582,0.0582,0.0582,-0.0685,-0.0734,-0.0757,-0.0818,-0.0838,-0.0861,-0.0874,-0.0897,-0.0781,-0.0489,-0.0094,0.0191,0.0541,0.0638,0.0809,0.0813,0.0908,0.084,0.0882,0.0812,0.0796,0.078,0.0838,0.094,0.094,0.111,0.1111,0.1113]}],[{"header":{"parameterUnit":"m.s-1","parameterCategory":2,"la1":30.2991,"la2":30.254,"lo1":-89.0895,"lo2":-89.0444,"dy":0.0017,"dx":0.0017,"nx":28,"ny":28,"refTime":"2025-08-24T21:00:00:Z","depth":"2","parameterNumber":2,"parameterNumberName":"U-component_of_CURRENTS"},"data":[0,0,0,0,0,0,0,0,0,0,0,0,0,0,0,0,0,0,0,0,0,0,0,0,0,0,0,0,0,0,0,0,0,0,0,0,0,0,0,0,0,0,0,0,0,0,0,0,0,0,0,0,0,0,0,0,0,0,-0.1546,-0.1546,0,-0.1576,-0.1577,-0.1577,-0.1542,-0.1541,-0.1539,-0.1538,-0.157,-0.1572,-0.1574,0,0,0,0,0,0,0,0,0,0,0,0,0,-0.1471,-0.1473,-0.1546,-0.1546,-0.1547,-0.1576,-0.1577,-0.1577,-0.1542,-0.1541,-0.1539,-0.1537,-0.1569,-0.1572,-0.1574,0,0,0,0,0,0,0,0,0,0,0,0,0,-0.1503,-0.1473,-0.1546,-0.1532,-0.1532,-0.1576,-0.1577,-0.1577,-0.1543,-0.154,-0.1538,-0.1537,-0.1568,-0.1571,-0.1575,-0.1634,0,0,-0.1584,-0.1586,0,0,0,0,0,0,0,0,-0.1501,-0.1506,-0.1534,-0.1533,-0.1532,-0.1553,-0.1562,-0.1596,-0.1543,-0.1539,-0.1538,-0.1536,-0.1566,-0.1569,-0.158,-0.1636,-0.1637,-0.1584,-0.1586,-0.1588,-0.1589,0,0,0,0,0,0,0,-0.1499,-0.1505,-0.1558,-0.1535,-0.1534,-0.153,-0.1532,-0.1568,-0.1563,-0.1539,-0.1536,-0.154,-0.1565,-0.1577,-0.158,-0.1638,-0.1584,-0.1587,-0.1589,-0.159,-0.1761,-0.1764,0,0,0,0,0,0,-0.1497,-0.1503,-0.1557,-0.1559,-0.1511,-0.1533,-0.1535,-0.1549,-0.1563,-0.1563,-0.1542,-0.1538,-0.1572,-0.1576,-0.1581,-0.1664,-0.1588,-0.1591,-0.1592,-0.1759,-0.1762,-0.1765,0,0,0,0,0,0,-0.1495,-0.1502,-0.1556,-0.153,-0.1537,-0.1536,-0.1552,-0.155,-0.1558,-0.1565,-0.1564,-0.155,-0.1571,-0.1577,-0.1634,-0.1664,-0.1592,-0.1595,-0.1755,-0.176,-0.1763,-0.1822,0,0,0,0,0,0,-0.1493,-0.1502,-0.1512,-0.1531,-0.1538,-0.1577,-0.1553,-0.1552,-0.1563,-0.1559,-0.1573,-0.1573,-0.157,-0.163,-0.1637,-0.1667,-0.1597,-0.1752,-0.1757,-0.1762,-0.1817,-0.1827,-0.1837,0,0,0,0,0,-0.1491,-0.1515,-0.1512,-0.1519,-0.1552,-0.1578,-0.1581,-0.1573,-0.1566,-0.1573,-0.1601,-0.1572,-0.1665,-0.1635,-0.1643,-0.1674,-0.175,-0.1756,-0.1762,-0.1812,-0.1825,-0.1836,0,0,0,0,0,0,-0.1494,-0.1515,-0.1511,-0.1542,-0.1554,-0.1571,-0.1586,-0.1583,-0.1612,-0.162,-0.1616,-0.1621,-0.1674,-0.1681,-0.1647,-0.1741,-0.17,-0.1708,-0.1736,-0.1748,-0.1758,-0.1727,-0.16,0,0,0,0,0,-0.15,-0.1518,-0.1536,-0.1559,-0.1571,-0.1582,-0.1593,-0.1596,-0.1622,-0.1631,-0.1642,-0.1672,-0.1709,-0.1732,-0.1758,-0.1824,-0.1767,-0.1849,-0.1859,-0.1867,-0.185,-0.1797,-0.1799,-0.1784,-0.1784,-0.1784,0,0,-0.1508,-0.1521,-0.1531,-0.1559,-0.1574,-0.1605,-0.1583,-0.1615,-0.1648,-0.1636,-0.169,-0.1704,-0.1734,-0.1796,-0.1821,-0.1805,-0.1846,-0.1875,-0.1881,-0.1859,-0.1803,-0.1804,-0.1804,-0.1788,-0.1787,-0.1787,0,0,-0.1525,-0.1548,-0.1563,-0.1585,-0.1612,-0.1631,-0.1641,-0.167,-0.1687,-0.175,-0.1748,-0.1787,-0.1845,-0.1868,-0.189,-0.198,-0.1893,-0.1987,-0.202,-0.197,-0.1969,-0.1967,-0.1899,-0.189,-0.2,-0.2,-0.2,0,-0.1531,-0.1561,-0.1572,-0.1598,-0.1619,-0.1644,-0.1672,-0.1714,-0.1757,-0.1765,-0.1775,-0.1839,-0.1881,-0.1932,-0.1976,-0.1999,-0.1935,-0.1968,-0.1977,-0.1974,-0.1971,-0.1901,-0.1891,-0.2003,-0.2003,-0.2003,-0.2002,0,-0.1558,-0.159,-0.161,-0.165,-0.167,-0.1713,-0.1758,-0.1791,-0.1821,-0.1836,-0.1882,-0.1938,-0.1958,-0.1998,-0.2028,-0.2041,-0.1989,-0.1983,-0.1932,-0.1975,-0.19,-0.1889,-0.2008,-0.2007,-0.2006,-0.2005,0,0,-0.1552,-0.1616,-0.1622,-0.1637,-0.1707,-0.1718,-0.1791,-0.183,-0.1855,-0.1905,-0.1909,-0.2016,-0.2004,-0.203,-0.2058,-0.205,-0.2015,-0.2017,-0.2013,-0.1923,-0.1866,-0.1792,-0.1771,-0.1988,-0.1986,-0.1985,-0.182,0,-0.157,-0.161,-0.1648,-0.1696,-0.1718,-0.1768,-0.1822,-0.1859,-0.1902,-0.1921,-0.1959,-0.1989,-0.2031,-0.2045,-0.2044,-0.2023,-0.1986,-0.2058,-0.186,-0.1854,-0.176,-0.1757,-0.1648,-0.1487,-0.1808,-0.1806,-0.1805,0,-0.1569,-0.1599,-0.1644,-0.1693,-0.1709,-0.1758,-0.1807,-0.1858,-0.1902,-0.1924,-0.194,-0.1952,-0.1979,-0.1997,-0.1943,-0.1974,-0.192,-0.1893,-0.1885,-0.1779,-0.1757,-0.1499,-0.1453,-0.1784,-0.1786,-0.1788,-0.1789,0,-0.1513,-0.1583,-0.1613,-0.1641,-0.1719,-0.1751,-0.1794,-0.1849,-0.1866,-0.1911,-0.1891,-0.192,-0.1908,-0.1868,-0.1846,-0.1876,-0.1734,-0.1767,-0.1631,-0.1624,-0.1474,-0.1456,-0.1674,-0.1674,-0.1675,-0.1675,-0.1676,0,-0.1505,-0.1524,-0.1597,-0.1625,-0.1652,-0.1714,-0.1754,-0.1798,-0.1834,-0.1815,-0.1876,-0.1842,-0.1866,-0.1801,-0.1789,-0.1662,-0.1678,-0.1609,-0.1571,-0.1495,-0.1483,-0.1702,-0.1707,-0.1669,-0.167,-0.1671,-0.1672,0,-0.1434,-0.1496,-0.152,-0.1606,-0.1632,-0.1642,-0.1708,-0.1716,-0.1771,-0.1739,-0.1735,-0.1744,-0.1673,-0.166,-0.1586,-0.1559,-0.1478,-0.1415,-0.1321,-0.1275,-0.1413,-0.1424,-0.1252,-0.1248,-0.1244,-0.1241,-0.1239,0,-0.1405,-0.1414,-0.1478,-0.148,-0.1532,-0.157,-0.1586,-0.1668,-0.1661,-0.1662,-0.1608,-0.1556,-0.1485,-0.1355,-0.1308,-0.1216,-0.1315,-0.1064,-0.1129,-0.1386,-0.1367,-0.1383,-0.1399,-0.095,-0.0946,-0.0942,-0.0939,0,-0.1333,-0.1354,-0.1365,-0.1379,-0.1403,-0.1419,-0.1452,-0.1438,-0.1498,-0.147,-0.1402,-0.1354,-0.123,-0.1098,-0.0999,-0.0954,-0.1092,-0.0983,-0.1233,-0.1093,-0.1093,-0.1078,-0.1104,-0.0905,-0.0909,-0.0911,-0.0913,-0.0914,-0.1251,-0.1228,-0.1242,-0.1243,-0.1259,-0.126,-0.124,-0.1259,-0.1233,-0.1179,-0.1189,-0.108,-0.1034,-0.0831,-0.0751,-0.071,-0.0808,-0.0795,-0.081,-0.0828,-0.0841,-0.0838,-0.0602,-0.0603,-0.0605,-0.0606,-0.0607,0,-0.1136,-0.1121,-0.1104,-0.1105,-0.1074,-0.1137,-0.1126,-0.1085,-0.1021,-0.0987,-0.0927,-0.0766,-0.0642,-0.0616,-0.0481,-0.0446,-0.0482,-0.0441,-0.0497,-0.0529,-0.0557,-0.0562,-0.0245,-0.0245,-0.0244,-0.0243,0,0,-0.1068,-0.1011,-0.1007,-0.0932,-0.0929,-0.0869,-0.0845,-0.0801,-0.0763,-0.0676,-0.0618,-0.0626,-0.0591,-0.0429,-0.0372,-0.0286,-0.0417,-0.0267,-0.0552,-0.065,-0.0678,-0.0747,-0.0787,0,0,0,0,0]},{"header":{"parameterUnit":"m.s-1","parameterCategory":2,"la1":30.2991,"la2":30.254,"lo1":-89.0895,"lo2":-89.0444,"dy":0.0017,"dx":0.0017,"nx":28,"ny":28,"refTime":"2025-08-24T21:00:00:Z","depth":"2","parameterNumber":3,"parameterNumberName":"V-component_of_CURRENTS"},"data":[0,0,0,0,0,0,0,0,0,0,0,0,0,0,0,0,0,0,0,0,0,0,0,0,0,0,0,0,0,0,0,0,0,0,0,0,0,0,0,0,0,0,0,0,0,0,0,0,0,0,0,0,0,0,0,0,0,0,-0.0278,-0.0278,0,-0.0294,-0.0294,-0.0294,-0.0268,-0.0267,-0.0266,-0.0265,-0.018,-0.0179,-0.0178,0,0,0,0,0,0,0,0,0,0,0,0,0,-0.0238,-0.0239,-0.0278,-0.0278,-0.0278,-0.0294,-0.0294,-0.0294,-0.0268,-0.0267,-0.0265,-0.0264,-0.0181,-0.0179,-0.0177,0,0,0,0,0,0,0,0,0,0,0,0,0,-0.0256,-0.024,-0.0278,-0.0266,-0.0266,-0.0294,-0.0294,-0.0294,-0.0268,-0.0267,-0.0265,-0.0264,-0.0181,-0.0179,-0.0177,-0.0193,0,0,-0.0171,-0.017,0,0,0,0,0,0,0,0,-0.0255,-0.0257,-0.0268,-0.0267,-0.0266,-0.0277,-0.0249,-0.0255,-0.0268,-0.0268,-0.0265,-0.0263,-0.0204,-0.02,-0.0208,-0.0189,-0.0185,-0.0171,-0.017,-0.0169,-0.0168,0,0,0,0,0,0,0,-0.0253,-0.0256,-0.0285,-0.0268,-0.0267,-0.0265,-0.0266,-0.0251,-0.0242,-0.0268,-0.0266,-0.0267,-0.0203,-0.021,-0.0206,-0.0184,-0.0171,-0.0169,-0.0168,-0.0167,-0.0088,-0.0088,0,0,0,0,0,0,-0.0252,-0.0255,-0.0284,-0.0285,-0.0256,-0.0267,-0.0268,-0.0275,-0.0244,-0.0239,-0.0268,-0.0266,-0.0215,-0.0208,-0.0202,-0.0168,-0.0169,-0.0167,-0.0166,-0.0089,-0.0088,-0.0087,0,0,0,0,0,0,-0.0251,-0.0254,-0.0283,-0.027,-0.0273,-0.0269,-0.0278,-0.0276,-0.0276,-0.0246,-0.0238,-0.0268,-0.0213,-0.0205,-0.0174,-0.0166,-0.0166,-0.0164,-0.009,-0.0089,-0.0088,-0.0131,0,0,0,0,0,0,-0.025,-0.0254,-0.026,-0.027,-0.0274,-0.0305,-0.0279,-0.0278,-0.0279,-0.0276,-0.0243,-0.0235,-0.0212,-0.0178,-0.0172,-0.0163,-0.0162,-0.0091,-0.009,-0.0088,-0.013,-0.0131,-0.0132,0,0,0,0,0,-0.0248,-0.0272,-0.0261,-0.0264,-0.0282,-0.0306,-0.0308,-0.03,-0.0281,-0.0292,-0.0254,-0.0235,-0.0163,-0.0176,-0.017,-0.016,-0.0092,-0.009,-0.0088,-0.013,-0.0131,-0.0132,0,0,0,0,0,0,-0.026,-0.0271,-0.0259,-0.0284,-0.0292,-0.0301,-0.0313,-0.0303,-0.0286,-0.0272,-0.0235,-0.0225,-0.0195,-0.0169,-0.0184,-0.0128,-0.012,-0.0117,-0.0154,-0.0154,-0.0155,-0.015,-0.0161,0,0,0,0,0,-0.0265,-0.0282,-0.0288,-0.0306,-0.0312,-0.0309,-0.0316,-0.0309,-0.0297,-0.0289,-0.0262,-0.0221,-0.0187,-0.0164,-0.0139,-0.0115,-0.009,-0.0098,-0.0099,-0.01,-0.0089,-0.0039,-0.0035,-0.0081,-0.0081,-0.0081,0,0,-0.0274,-0.0282,-0.0291,-0.0309,-0.0314,-0.033,-0.0311,-0.0324,-0.0319,-0.0281,-0.0263,-0.0232,-0.0182,-0.0154,-0.0136,-0.0127,-0.0079,-0.0097,-0.0099,-0.0087,-0.0037,-0.0032,-0.0028,-0.008,-0.008,-0.008,0,0,-0.0312,-0.0308,-0.0337,-0.0344,-0.0352,-0.0348,-0.035,-0.0353,-0.0335,-0.0319,-0.0279,-0.0228,-0.02,-0.0147,-0.0118,-0.0101,-0.0092,-0.0106,-0.0099,-0.0051,-0.0047,-0.0044,-0.0038,-0.0033,-0.0097,-0.0097,-0.0098,0,-0.0319,-0.0352,-0.035,-0.0375,-0.038,-0.0355,-0.0378,-0.0361,-0.0348,-0.0329,-0.0312,-0.0233,-0.0184,-0.0126,-0.0113,-0.0101,-0.01,-0.0107,-0.0054,-0.0049,-0.0044,-0.0039,-0.0033,-0.0099,-0.0099,-0.0099,-0.0099,0,-0.0377,-0.0396,-0.0414,-0.0429,-0.0436,-0.0452,-0.0427,-0.042,-0.0387,-0.0359,-0.0304,-0.0235,-0.0181,-0.0156,-0.0127,-0.007,-0.0092,-0.0072,-0.0059,-0.0043,-0.0038,-0.0032,-0.0102,-0.0101,-0.0101,-0.01,0,0,-0.0406,-0.0447,-0.0451,-0.0463,-0.0462,-0.0474,-0.0462,-0.0443,-0.0411,-0.0375,-0.0335,-0.0247,-0.0205,-0.0166,-0.0118,-0.0061,-0.0022,-0.0058,-0.0055,-0.0065,0.0035,0.0049,0.0058,-0.0013,-0.0011,-0.001,0.0012,0,-0.0447,-0.0509,-0.051,-0.0544,-0.0568,-0.0538,-0.0523,-0.0493,-0.0439,-0.0393,-0.0305,-0.0245,-0.021,-0.0172,-0.0114,-0.0038,-0.0002,-0.0032,0.0033,0.0035,0.0037,0.0069,0.0076,0.0098,0.0018,0.002,0.002,0,-0.0499,-0.0532,-0.0584,-0.0594,-0.0598,-0.0602,-0.0564,-0.0545,-0.0466,-0.0423,-0.0353,-0.0286,-0.019,-0.0159,-0.0037,-0.0073,-0.0025,0.0029,0.0032,0.0072,0.0065,0.0079,0.0114,0.0032,0.0031,0.003,0.003,0,-0.053,-0.0576,-0.0617,-0.0624,-0.0632,-0.0633,-0.0621,-0.0555,-0.0523,-0.0433,-0.0397,-0.029,-0.0223,-0.0144,-0.0033,-0.0041,0.0085,0.0093,0.0141,0.014,0.0179,0.0179,0.0169,0.0169,0.0169,0.0169,0.0169,0,-0.0571,-0.0601,-0.0634,-0.0655,-0.0674,-0.0662,-0.064,-0.061,-0.0544,-0.0491,-0.041,-0.0342,-0.0215,-0.0128,-0.0048,0.0067,0.0071,0.0151,0.0163,0.016,0.0159,0.0137,0.0133,0.017,0.017,0.0169,0.0169,0,-0.0599,-0.0627,-0.067,-0.069,-0.0694,-0.0703,-0.0679,-0.065,-0.059,-0.0523,-0.05,-0.0379,-0.0255,-0.0149,0.0,0.0059,0.0166,0.0194,0.0162,0.0171,0.0181,0.0175,0.0256,0.0257,0.0258,0.0259,0.0259,0,-0.062,-0.0651,-0.0696,-0.0713,-0.0723,-0.0729,-0.0723,-0.0681,-0.0643,-0.0532,-0.0502,-0.0376,-0.0253,-0.006,0.0062,0.0186,0.0184,0.0252,0.0272,0.0196,0.0198,0.019,0.0183,0.0285,0.0286,0.0286,0.0287,0,-0.0645,-0.0662,-0.0694,-0.0738,-0.0751,-0.0762,-0.0747,-0.0727,-0.0655,-0.0577,-0.0447,-0.0338,-0.0163,0.0011,0.0147,0.0219,0.0239,0.027,0.0224,0.0264,0.0226,0.0227,0.0218,0.0293,0.0292,0.0292,0.0291,0.0291,-0.0649,-0.0677,-0.0718,-0.0752,-0.0772,-0.0775,-0.0761,-0.0707,-0.0633,-0.0481,-0.0398,-0.0206,-0.0083,0.0154,0.0229,0.0284,0.0293,0.0331,0.0327,0.0324,0.0326,0.0293,0.0369,0.0369,0.0369,0.0369,0.0369,0,-0.0652,-0.0688,-0.0725,-0.0766,-0.0783,-0.0791,-0.0761,-0.0702,-0.0585,-0.0427,-0.0262,-0.0078,0.0098,0.0189,0.0292,0.036,0.0342,0.0367,0.034,0.0335,0.0331,0.0332,0.0377,0.0377,0.0377,0.0377,0,0,-0.0656,-0.0698,-0.0724,-0.0762,-0.0784,-0.078,-0.0754,-0.063,-0.0503,-0.0299,-0.015,0.0033,0.0139,0.0219,0.0293,0.0335,0.0312,0.0333,0.0327,0.0284,0.0278,0.032,0.0318,0,0,0,0,0]}],[{"header":{"parameterUnit":"m.s-1","parameterCategory":2,"la1":30.2991,"la2":30.254,"lo1":-89.0895,"lo2":-89.0444,"dy":0.0017,"dx":0.0017,"nx":28,"ny":28,"refTime":"2025-08-24T21:00:00:Z","depth":"4","parameterNumber":2,"parameterNumberName":"U-component_of_CURRENTS"},"data":[0,0,0,0,0,0,0,0,0,0,0,0,0,0,0,0,0,0,0,0,0,0,0,0,0,0,0,0,0,0,0,0,0,0,0,0,0,0,0,0,0,0,0,0,0,0,0,0,0,0,0,0,0,0,0,0,0,0,-0.1018,-0.1018,0,-0.1003,-0.1003,-0.1002,-0.1,-0.1,-0.1,-0.1001,-0.101,-0.101,-0.101,0,0,0,0,0,0,0,0,0,0,0,0,0,-0.0989,-0.099,-0.1018,-0.1018,-0.1017,-0.1003,-0.1003,-0.1002,-0.1,-0.1,-0.1,-0.1001,-0.101,-0.101,-0.101,0,0,0,0,0,0,0,0,0,0,0,0,0,-0.099,-0.099,-0.1018,-0.1015,-0.1015,-0.1003,-0.1003,-0.1002,-0.1,-0.1,-0.1,-0.1001,-0.101,-0.101,-0.101,-0.1004,0,0,-0.101,-0.101,0,0,0,0,0,0,0,0,-0.099,-0.0991,-0.1016,-0.1015,-0.1015,-0.1004,-0.0996,-0.1004,-0.1,-0.1005,-0.1001,-0.1001,-0.101,-0.101,-0.1005,-0.1005,-0.1005,-0.101,-0.101,-0.101,-0.101,0,0,0,0,0,0,0,-0.099,-0.0991,-0.1011,-0.1015,-0.1015,-0.0996,-0.0997,-0.0997,-0.1006,-0.1004,-0.1004,-0.1004,-0.101,-0.1005,-0.1006,-0.1005,-0.101,-0.101,-0.101,-0.101,-0.1069,-0.107,0,0,0,0,0,0,-0.0996,-0.0992,-0.1012,-0.1011,-0.1004,-0.0996,-0.0997,-0.1007,-0.1005,-0.1005,-0.1003,-0.1004,-0.1005,-0.1006,-0.1006,-0.1031,-0.101,-0.101,-0.101,-0.1067,-0.1069,-0.1071,0,0,0,0,0,0,-0.0996,-0.0999,-0.1012,-0.1001,-0.1001,-0.0997,-0.1007,-0.1006,-0.1015,-0.1005,-0.1005,-0.1015,-0.1005,-0.1006,-0.1019,-0.103,-0.101,-0.101,-0.1065,-0.1068,-0.107,-0.106,0,0,0,0,0,0,-0.0995,-0.0999,-0.1015,-0.1002,-0.1002,-0.1015,-0.1007,-0.1006,-0.1013,-0.1014,-0.1014,-0.1014,-0.1006,-0.1019,-0.1019,-0.103,-0.101,-0.1063,-0.1066,-0.1069,-0.1058,-0.1062,-0.1064,0,0,0,0,0,-0.0994,-0.1008,-0.1016,-0.1018,-0.1022,-0.1015,-0.1014,-0.101,-0.1014,-0.1019,-0.1022,-0.1015,-0.1038,-0.102,-0.102,-0.103,-0.1062,-0.1066,-0.1069,-0.1057,-0.1061,-0.1064,0,0,0,0,0,0,-0.1006,-0.1008,-0.1017,-0.1033,-0.1031,-0.1015,-0.1019,-0.1019,-0.1024,-0.1029,-0.1022,-0.1023,-0.1039,-0.1045,-0.1026,-0.1062,-0.1054,-0.1057,-0.1045,-0.1049,-0.1052,-0.1045,-0.101,0,0,0,0,0,-0.1017,-0.1029,-0.1026,-0.1041,-0.1041,-0.1035,-0.1035,-0.1033,-0.1031,-0.1034,-0.1038,-0.1048,-0.1051,-0.1058,-0.1063,-0.1077,-0.1076,-0.1092,-0.1095,-0.1097,-0.1095,-0.11,-0.1102,-0.1082,-0.1082,-0.1082,0,0,-0.1028,-0.1029,-0.1039,-0.1045,-0.1042,-0.1039,-0.1036,-0.1038,-0.1039,-0.1035,-0.1048,-0.1055,-0.1059,-0.1071,-0.1081,-0.1077,-0.1106,-0.1102,-0.1103,-0.11,-0.1104,-0.1106,-0.1107,-0.1084,-0.1084,-0.1083,0,0,-0.1032,-0.1056,-0.1056,-0.1054,-0.1053,-0.1052,-0.1057,-0.1054,-0.1059,-0.1071,-0.1069,-0.1079,-0.1098,-0.1092,-0.1092,-0.1119,-0.1119,-0.1141,-0.1146,-0.1151,-0.1152,-0.1153,-0.1156,-0.1157,-0.1144,-0.1144,-0.1144,0,-0.1046,-0.1043,-0.1056,-0.1047,-0.1046,-0.106,-0.1054,-0.106,-0.1065,-0.1071,-0.1081,-0.1101,-0.1101,-0.1101,-0.1114,-0.112,-0.1132,-0.1124,-0.1151,-0.1152,-0.1153,-0.1156,-0.1157,-0.1144,-0.1144,-0.1144,-0.1144,0,-0.1032,-0.1037,-0.1036,-0.1035,-0.1043,-0.1039,-0.1049,-0.1062,-0.108,-0.1088,-0.1106,-0.1107,-0.1122,-0.1127,-0.1126,-0.1139,-0.1148,-0.1148,-0.1132,-0.1154,-0.1156,-0.1158,-0.1144,-0.1144,-0.1144,-0.1144,0,0,-0.1032,-0.1027,-0.1026,-0.1022,-0.1033,-0.1034,-0.1048,-0.1058,-0.1069,-0.1092,-0.1102,-0.1111,-0.1131,-0.1134,-0.1138,-0.114,-0.1151,-0.1155,-0.1156,-0.114,-0.1171,-0.1075,-0.1067,-0.1162,-0.1162,-0.1162,-0.117,0,-0.1011,-0.0991,-0.1,-0.0996,-0.0987,-0.101,-0.1022,-0.1043,-0.1069,-0.109,-0.1101,-0.112,-0.113,-0.1142,-0.1147,-0.115,-0.1155,-0.1149,-0.1168,-0.1169,-0.1065,-0.1065,-0.1163,-0.1171,-0.1171,-0.1171,-0.1171,0,-0.0978,-0.097,-0.096,-0.0968,-0.0969,-0.0982,-0.1009,-0.1022,-0.1058,-0.1081,-0.1109,-0.1131,-0.1144,-0.115,-0.1164,-0.1167,-0.1176,-0.1172,-0.1173,-0.1084,-0.1074,-0.1148,-0.1174,-0.1173,-0.1173,-0.1173,-0.1173,0,-0.0947,-0.094,-0.0935,-0.0935,-0.0952,-0.0963,-0.0984,-0.1022,-0.1042,-0.1085,-0.1111,-0.1134,-0.1155,-0.1164,-0.1175,-0.118,-0.1183,-0.1185,-0.1103,-0.1097,-0.1185,-0.1184,-0.1193,-0.1193,-0.1192,-0.1192,-0.1192,0,-0.0904,-0.09,-0.0923,-0.0916,-0.092,-0.095,-0.0967,-0.0994,-0.1041,-0.107,-0.1115,-0.1132,-0.1165,-0.1176,-0.1178,-0.1138,-0.119,-0.1095,-0.1086,-0.1184,-0.1183,-0.1186,-0.1185,-0.1193,-0.1193,-0.1193,-0.1193,0,-0.0864,-0.0876,-0.0871,-0.0893,-0.0903,-0.0913,-0.0958,-0.0975,-0.1029,-0.1069,-0.1089,-0.1143,-0.1145,-0.1158,-0.1163,-0.1131,-0.1103,-0.1081,-0.1183,-0.1182,-0.1016,-0.1015,-0.098,-0.0976,-0.0973,-0.0971,-0.0969,0,-0.084,-0.0831,-0.0854,-0.086,-0.0873,-0.0892,-0.0908,-0.0962,-0.0991,-0.1064,-0.1082,-0.1108,-0.113,-0.1054,-0.1075,-0.1045,-0.1036,-0.1024,-0.1013,-0.0996,-0.0992,-0.0996,-0.0999,-0.0964,-0.0963,-0.0963,-0.0962,0,-0.0791,-0.0809,-0.0806,-0.0818,-0.0838,-0.085,-0.0885,-0.0898,-0.0968,-0.1026,-0.1035,-0.1022,-0.1015,-0.0993,-0.0973,-0.0958,-0.1025,-0.0993,-0.0999,-0.0989,-0.0977,-0.0977,-0.0983,-0.0952,-0.0953,-0.0954,-0.0955,0,-0.0759,-0.075,-0.0757,-0.0759,-0.0794,-0.0809,-0.0823,-0.0846,-0.0873,-0.0963,-0.0958,-0.0978,-0.1012,-0.0949,-0.0933,-0.0897,-0.0881,-0.0857,-0.087,-0.0882,-0.0841,-0.0811,-0.0717,0,0,0,0,0,-0.0716,-0.0694,-0.0697,-0.0699,-0.0742,-0.0754,-0.0812,-0.0835,-0.0902,-0.0885,-0.0919,-0.0904,-0.0864,-0.087,-0.0807,-0.0881,-0.0886,-0.0805,-0.0867,-0.0895,-0.0907,-0.0865,0,0,0,0,0,0,-0.068,-0.0678,-0.0669,-0.0658,-0.0654,-0.0688,-0.072,-0.0762,-0.0752,-0.0821,-0.0796,-0.084,-0.0807,-0.0877,-0.0784,-0.0785,-0.0803,-0.0816,-0.0813,-0.0889,-0.0899,-0.0909,-0.087,0,0,0,0,0]},{"header":{"parameterUnit":"m.s-1","parameterCategory":2,"la1":30.2991,"la2":30.254,"lo1":-89.0895,"lo2":-89.0444,"dy":0.0017,"dx":0.0017,"nx":28,"ny":28,"refTime":"2025-08-24T21:00:00:Z","depth":"4","parameterNumber":3,"parameterNumberName":"V-component_of_CURRENTS"},"data":[0,0,0,0,0,0,0,0,0,0,0,0,0,0,0,0,0,0,0,0,0,0,0,0,0,0,0,0,0,0,0,0,0,0,0,0,0,0,0,0,0,0,0,0,0,0,0,0,0,0,0,0,0,0,0,0,0,0,-0.0241,-0.0242,0,-0.028,-0.0281,-0.0281,-0.0267,-0.0266,-0.0266,-0.0265,-0.0254,-0.0254,-0.0255,0,0,0,0,0,0,0,0,0,0,0,0,0,-0.0189,-0.019,-0.0241,-0.0242,-0.0242,-0.028,-0.0281,-0.0282,-0.0268,-0.0266,-0.0265,-0.0264,-0.0253,-0.0254,-0.0255,0,0,0,0,0,0,0,0,0,0,0,0,0,-0.0219,-0.0191,-0.0241,-0.0239,-0.0239,-0.028,-0.0281,-0.0282,-0.0268,-0.0266,-0.0265,-0.0264,-0.0253,-0.0254,-0.0255,-0.0289,0,0,-0.0258,-0.0258,0,0,0,0,0,0,0,0,-0.0218,-0.0221,-0.0239,-0.0239,-0.024,-0.0267,-0.0259,-0.0281,-0.0268,-0.0258,-0.0265,-0.0263,-0.0254,-0.0255,-0.0267,-0.0288,-0.0288,-0.0258,-0.0258,-0.0259,-0.0259,0,0,0,0,0,0,0,-0.0215,-0.022,-0.0257,-0.024,-0.024,-0.0248,-0.0251,-0.0263,-0.0263,-0.0259,-0.0257,-0.0261,-0.0254,-0.0266,-0.0266,-0.0288,-0.0258,-0.0258,-0.0259,-0.0259,-0.0324,-0.0325,0,0,0,0,0,0,-0.0209,-0.0218,-0.0256,-0.0259,-0.0224,-0.025,-0.0253,-0.026,-0.0264,-0.0263,-0.0262,-0.026,-0.0265,-0.0265,-0.0266,-0.0305,-0.0258,-0.0259,-0.026,-0.0323,-0.0324,-0.0326,0,0,0,0,0,0,-0.0208,-0.0212,-0.0255,-0.0238,-0.0244,-0.0252,-0.0261,-0.0262,-0.0272,-0.0267,-0.0265,-0.027,-0.0264,-0.0265,-0.0282,-0.0304,-0.026,-0.0261,-0.0321,-0.0323,-0.0325,-0.0384,0,0,0,0,0,0,-0.0206,-0.0212,-0.0219,-0.0238,-0.0244,-0.0286,-0.0262,-0.0263,-0.0276,-0.0273,-0.0274,-0.0271,-0.0263,-0.0281,-0.0283,-0.0305,-0.0261,-0.032,-0.0322,-0.0324,-0.038,-0.0387,-0.0394,0,0,0,0,0,-0.0204,-0.0227,-0.0219,-0.0224,-0.0253,-0.0287,-0.0292,-0.0293,-0.0277,-0.0294,-0.029,-0.0271,-0.0296,-0.0283,-0.0285,-0.0307,-0.0319,-0.0322,-0.0324,-0.0378,-0.0386,-0.0393,0,0,0,0,0,0,-0.0211,-0.0228,-0.022,-0.0246,-0.0264,-0.0284,-0.0302,-0.0299,-0.0311,-0.0305,-0.0292,-0.0291,-0.0316,-0.0305,-0.0291,-0.0332,-0.0303,-0.0306,-0.0343,-0.0351,-0.0357,-0.0354,-0.0262,0,0,0,0,0,-0.0215,-0.0233,-0.0248,-0.027,-0.028,-0.029,-0.0303,-0.0305,-0.0317,-0.0321,-0.032,-0.0319,-0.0332,-0.0334,-0.0344,-0.037,-0.0318,-0.0383,-0.039,-0.0395,-0.0395,-0.0334,-0.0334,-0.0334,-0.0334,-0.0334,0,0,-0.0223,-0.0235,-0.0245,-0.0272,-0.0285,-0.0316,-0.0295,-0.0323,-0.0345,-0.0318,-0.0348,-0.0347,-0.0345,-0.0374,-0.0383,-0.0365,-0.0367,-0.0399,-0.0404,-0.04,-0.0337,-0.0337,-0.0336,-0.0336,-0.0336,-0.0336,0,0,-0.0258,-0.026,-0.0289,-0.0307,-0.033,-0.034,-0.0348,-0.037,-0.0375,-0.0405,-0.0391,-0.0404,-0.0421,-0.0427,-0.043,-0.048,-0.0407,-0.0478,-0.0506,-0.0448,-0.0446,-0.0445,-0.0368,-0.0359,-0.0477,-0.0477,-0.0477,0,-0.0265,-0.0301,-0.0305,-0.0338,-0.0353,-0.0352,-0.0386,-0.0403,-0.0426,-0.0425,-0.042,-0.044,-0.0449,-0.047,-0.0494,-0.0495,-0.0432,-0.0476,-0.0454,-0.0451,-0.0448,-0.037,-0.036,-0.048,-0.048,-0.0479,-0.0479,0,-0.0322,-0.0348,-0.037,-0.0405,-0.0425,-0.0456,-0.0472,-0.0489,-0.0489,-0.0489,-0.0506,-0.0517,-0.0517,-0.0534,-0.0535,-0.053,-0.0481,-0.047,-0.0429,-0.0451,-0.0368,-0.0356,-0.0484,-0.0483,-0.0482,-0.0482,0,0,-0.034,-0.0397,-0.0404,-0.0423,-0.0459,-0.048,-0.0517,-0.0539,-0.0542,-0.056,-0.0555,-0.0603,-0.0579,-0.0582,-0.0578,-0.0548,-0.0492,-0.0504,-0.0499,-0.0419,-0.033,-0.0318,-0.0302,-0.0459,-0.0458,-0.0457,-0.0275,0,-0.038,-0.0447,-0.0465,-0.052,-0.0551,-0.0556,-0.0582,-0.0595,-0.0596,-0.0591,-0.0587,-0.0588,-0.0603,-0.0597,-0.0573,-0.0514,-0.0463,-0.0541,-0.0327,-0.0321,-0.0301,-0.029,-0.0452,-0.0265,-0.0262,-0.026,-0.0259,0,-0.0427,-0.0462,-0.0525,-0.056,-0.0571,-0.0603,-0.0619,-0.0643,-0.0632,-0.0623,-0.0612,-0.059,-0.0574,-0.0571,-0.0465,-0.0502,-0.0421,-0.037,-0.0361,-0.0321,-0.0287,-0.0241,-0.0235,-0.0237,-0.0239,-0.0241,-0.0242,0,-0.0432,-0.0499,-0.0546,-0.0563,-0.0608,-0.0628,-0.0646,-0.065,-0.0648,-0.0632,-0.0603,-0.0577,-0.0535,-0.046,-0.0376,-0.0399,-0.0224,-0.0235,-0.0141,-0.0137,-0.0174,-0.0178,-0.0132,-0.0133,-0.0133,-0.0134,-0.0134,0,-0.0461,-0.0498,-0.0553,-0.0579,-0.0615,-0.0637,-0.0658,-0.0667,-0.0651,-0.0621,-0.0611,-0.0559,-0.0498,-0.04,-0.0337,-0.0196,-0.0181,-0.0135,-0.0092,-0.0203,-0.0213,-0.0164,-0.017,-0.0127,-0.0128,-0.013,-0.0131,0,-0.0463,-0.0505,-0.0555,-0.0608,-0.0623,-0.0647,-0.0666,-0.0667,-0.065,-0.0606,-0.0591,-0.0512,-0.0387,-0.0312,-0.0164,-0.0125,-0.0014,0.0041,-0.0061,-0.0028,0.003,0.0018,0.0165,0.0167,0.0168,0.017,0.0171,0,-0.0472,-0.0502,-0.0568,-0.0592,-0.0621,-0.0654,-0.0666,-0.067,-0.0654,-0.0564,-0.0525,-0.0401,-0.0341,-0.0101,-0.0054,0.0088,0.0093,0.0159,0.0054,0.0032,0.006,0.0045,0.0032,0.0173,0.0174,0.0174,0.0175,0,-0.0478,-0.0505,-0.0543,-0.0593,-0.0624,-0.0646,-0.0658,-0.0632,-0.0601,-0.0582,-0.0422,-0.0317,-0.0162,-0.0053,0.0063,0.0149,0.0103,0.0175,0.0171,0.0073,0.0044,0.0067,0.0052,0.018,0.0179,0.0179,0.0178,0,-0.0474,-0.0498,-0.0549,-0.0587,-0.0623,-0.0624,-0.0631,-0.0576,-0.0545,-0.044,-0.0376,-0.0233,-0.0152,-0.0015,0.0085,0.0167,0.0167,0.0171,0.0167,0.0162,0.0071,0.0028,0.021,0,0,0,0,0,-0.0465,-0.0496,-0.0535,-0.0578,-0.0609,-0.0628,-0.0617,-0.061,-0.0562,-0.0435,-0.04,-0.0254,-0.0078,-0.0006,0.0085,0.0068,0.0142,0.0171,0.0136,0.0211,0.0204,0.0094,0,0,0,0,0,0,-0.0464,-0.0507,-0.0531,-0.056,-0.0582,-0.0608,-0.0597,-0.0564,-0.0485,-0.0417,-0.0314,-0.025,-0.0086,-0.0126,0.0083,0.0105,0.0091,0.025,0.0251,0.0214,0.0208,0.0203,0.0087,0,0,0,0,0]}]]